This demonstration page uses our WeatherBlox Daily Observations layout. Learn more.

Left ArrowRight Arrow

38.89511, -77.03637

Hourly Observations for June 23, 2022

Temp ( °F °C ) Dew Point ( °F °C ) Humidity (%) Winds ( mph kmh ) Pressure ( in mb ) Visibility ( mi km ) Precip ( " mm )
12:00 am 00:00 Cloudy with Light Rain 71 21.7 68 20 90 90 Calm 29.91 1013 7 11 0.00 0.00
12:27 am 00:27 Cloudy with Heavy Rain 71 21.7 68 20 90 90 NNE 7 11 29.91 1013 3 4 0.13 3.30
12:48 am 00:48 Cloudy with Heavy Rain 72 22 68 20 88 88 NE 8 13 29.90 1012 2 3 0.52 13.21
12:52 am 00:52 Cloudy with Heavy Rain 71 21.7 68 20 90 90 ENE 8 13 29.89 1012 2 3 0.57 14.48
1:05 am 01:05 Cloudy with Rain 71 21.7 68 20 90 90 ENE 9 15 29.89 1012 4 6 0.14 3.56
1:15 am 01:15 Cloudy with Rain 71 21.7 68 20 90 90 ENE 9 15 29.88 1012 4 6 0.17 4.32
1:22 am 01:22 Cloudy with Rain 71 21.7 68 20 90 90 ENE 7 11 29.88 1012 4 6 0.18 4.57
1:47 am 01:47 Cloudy with Light Rain 72 22 66 19 83 83 E 12 19 29.87 1011 10 16 0.27 6.86
1:52 am 01:52 Cloudy with Light Rain 71 21.7 67 19.4 87 87 E 13 20 29.87 1012 10 16 0.27 6.86
2:22 am 02:22 Cloudy 71 21.7 66 18.9 84 84 E 13 20 29.88 1012 10 16 0.00 0.00
2:43 am 02:43 Cloudy with Light Rain 70 21.1 66 18.9 87 87 E 13 20 29.87 1011 10 16 0.00 0.00
2:52 am 02:52 Cloudy with Drizzle 70 21.1 66 18.9 87 87 E 13 20 29.86 1011 10 16 0.00 0.00
3:16 am 03:16 Cloudy 69 20.6 65 18.3 87 87 E 12 19 29.86 1011 10 16 0.00 0.00
3:26 am 03:26 Cloudy 69 20.6 65 18.3 87 87 ESE 12 19 29.86 1011 9 14 0.00 0.00
3:31 am 03:31 Cloudy 69 20.6 65 18.3 87 87 E 12 19 29.87 1011 9 14 0.00 0.00
3:52 am 03:52 Cloudy 69 20.6 64 17.8 84 84 ESE 8 13 29.87 1011 10 16 0.00 0.00
4:19 am 04:19 Cloudy 69 20.6 64 17.8 84 84 ESE 9 15 29.87 1011 10 16 0.00 0.00
4:52 am 04:52 Cloudy 68 20 64 17.8 87 87 SE 5 7 29.86 1011 10 16 0.00 0.00
5:24 am 05:24 Cloudy 68 20 63 17.2 84 84 E 6 9 29.88 1012 10 16 0.00 0.00
5:52 am 05:52 Cloudy 68 20 63 17.2 84 84 ESE 5 7 29.88 1012 10 16 0.00 0.00
6:38 am 06:38 Cloudy 68 20 63 17.2 84 84 E 6 9 29.88 1012 10 16 0.00 0.00
6:47 am 06:47 Cloudy 68 20 64 18 88 88 E 6 9 29.88 1012 10 16 0.00 0.00
6:52 am 06:52 Cloudy 68 20 63 17.2 84 84 E 7 11 29.87 1012 10 16 0.00 0.00
7:07 am 07:07 Cloudy 68 20 63 17.2 84 84 ESE 8 13 29.88 1012 10 16 0.00 0.00
7:52 am 07:52 Cloudy 68 20 63 17.2 84 84 ENE 6 9 29.89 1012 10 16 0.00 0.00
8:17 am 08:17 Cloudy with Light Rain 68 20 63 17.2 84 84 E 7 11 29.90 1012 3 4 0.00 0.00
8:28 am 08:28 Cloudy with Light Rain 67 19.4 63 17.2 87 87 E 7 11 29.90 1012 2 3 0.00 0.00
8:49 am 08:49 Cloudy with Light Rain 66 19 64 18 94 94 ENE 6 9 29.90 1012 2 3 0.03 0.76
8:52 am 08:52 Cloudy with Light Rain 67 19.4 63 17.2 87 87 ENE 5 7 29.90 1013 2 3 0.03 0.76
8:58 am 08:58 Cloudy with Mist and Fog 67 19.4 63 17.2 87 87 ENE 6 9 29.91 1013 4 6 0.00 0.00
9:19 am 09:19 Cloudy 67 19.4 63 17.2 87 87 ENE 8 13 29.91 1013 10 16 0.00 0.00
9:43 am 09:43 Cloudy with Light Rain 67 19.4 63 17.2 87 87 NE 10 17 29.92 1013 2 3 0.00 0.00
9:52 am 09:52 Cloudy with Light Rain 67 19.4 63 17.2 87 87 NE 10 17 29.92 1013 2 3 0.01 0.25
10:11 am 10:11 Cloudy with Light Rain 67 19.4 63 17.2 87 87 ENE 9 15 29.93 1014 2 3 0.01 0.25
10:23 am 10:23 Cloudy with Light Rain 67 19.4 63 17.2 87 87 ENE 10 17 29.93 1014 4 6 0.01 0.25
10:52 am 10:52 Cloudy 67 19.4 63 17.2 87 87 E 9 15 29.93 1014 8 13 0.01 0.25
10:59 am 10:59 Cloudy 68 20 63 17.2 84 84 E 8 13 29.94 1014 10 16 0.00 0.00
11:05 am 11:05 Cloudy 68 20 63 17.2 84 84 E 10 17 29.94 1014 10 16 0.00 0.00
11:52 am 11:52 Cloudy 68 20 63 17.2 84 84 ESE 8 13 29.94 1014 10 16 0.00 0.00
12:52 pm 12:52 Cloudy 69 20.6 63 17.2 81 81 E 9 15 29.95 1014 10 16 0.00 0.00
1:03 pm 13:03 Cloudy 68 20 63 17.2 84 84 E 7 11 29.96 1015 8 13 0.00 0.00
1:42 pm 13:42 Cloudy with Haze 69 20.6 63 17.2 81 81 E 6 9 29.96 1015 6 10 0.00 0.00
1:50 pm 13:50 Cloudy with Haze 70 21 64 18 83 83 ENE 7 11 29.97 1015 6 10 0.00 0.00
1:52 pm 13:52 Cloudy with Haze 69 20.6 63 17.2 81 81 E 6 9 29.96 1015 6 10 0.00 0.00
2:17 pm 14:17 Cloudy with Light Rain 68 20 64 17.8 87 87 E 5 7 29.96 1015 4 6 0.00 0.00
2:52 pm 14:52 Cloudy with Light Rain 68 20 64 17.8 87 87 NE 7 11 29.96 1015 3 5 0.00 0.00
3:00 pm 15:00 Cloudy with Mist and Fog 68 20 64 17.8 87 87 NE 8 13 29.97 1015 4 6 0.00 0.00
3:02 pm 15:02 Cloudy with Mist and Fog 68 20 64 17.8 87 87 NE 7 11 29.97 1015 4 6 0.00 0.00
3:34 pm 15:34 Cloudy with Drizzle 68 20 64 17.8 87 87 E 6 9 29.97 1015 4 6 0.00 0.00
3:52 pm 15:52 Cloudy 69 20.6 63 17.2 81 81 NE 5 7 29.96 1015 10 16 0.00 0.00
4:52 pm 16:52 Cloudy 72 22.2 63 17.2 73 73 Calm 29.95 1014 10 16 0.00 0.00
5:52 pm 17:52 Cloudy 72 22.2 62 16.7 71 71 Calm 29.94 1014 10 16 0.00 0.00
6:52 pm 18:52 Cloudy 72 22.2 62 16.7 71 71 E 3 6 29.94 1014 10 16 0.00 0.00
7:10 pm 19:10 Cloudy 73 22.8 62 16.7 69 69 Calm 29.95 1014 10 16 0.00 0.00
7:48 pm 19:48 Cloudy 72 22 63 17 73 73 E 8 13 29.96 1015 10 16 0.00 0.00
7:52 pm 19:52 Cloudy 72 22.2 62 16.7 71 71 E 7 11 29.96 1014 10 16 0.00 0.00
8:18 pm 20:18 Mostly Cloudy 71 21.7 62 16.7 73 73 E 6 9 29.96 1015 10 16 0.00 0.00
9:52 pm 21:52 Partly Cloudy 69 20.6 61 16.1 76 76 E 3 6 29.98 1015 10 16 0.00 0.00
10:52 pm 22:52 Mostly Cloudy 69 20.6 61 16.1 76 76 NE 3 6 30.00 1016 10 16 0.00 0.00

Powered by AerisWeather